Location: Famechon
(49.7599°N, 2.0615°E)
Time: 15:42:32
(UTC+00:00)

Cosmos 1741 Rocket - Visible Passes

Search period start: 30 September 2023 00:00
Search period end: 10 October 2023 00:00
Orbit: 761 x 780 km, 74.0° (Epoch: 29 September)

Date Brightness Start Highest point End Pass type
(mag) Time Alt. Az. Time Alt. Az. Time Alt. Az.
30 Sep 6.9 23:15:10 12° N 23:15:10 12° N 23:15:34 10° NNE visible
02 Oct 6.9 00:19:43 11° NNW 00:19:43 11° NNW 00:20:09 10° N visible
02 Oct 6.9 23:43:59 12° N 23:43:59 12° N 23:44:24 10° N visible
03 Oct 6.8 04:54:17 10° NNE 04:55:49 11° NE 04:57:21 10° NE visible
03 Oct 7.0 23:08:14 11° N 23:08:14 11° N 23:08:26 10° N visible
05 Oct 6.4 05:22:10 10° N 05:26:12 22° NE 05:30:14 10° E visible
06 Oct 6.6 04:46:19 10° N 04:49:28 16° NE 04:52:36 10° E visible
07 Oct 6.9 04:10:56 10° NNE 04:12:37 11° NE 04:14:19 10° NE visible
08 Oct 5.9 05:14:56 10° N 05:19:37 32° NE 05:24:17 10° ESE visible
09 Oct 6.4 04:38:53 10° N 04:42:59 22° NE 04:47:03 10° E visible
